Location: Dompnac
(44.5644°N, 4.1026°E)
Time: 13:40:32
(UTC+00:00)

Cosmos 2026 Rocket - Pass Details

Date: 23 January 2021
Orbit: 940 x 1000 km, 82.9° (Epoch: 28 February)

Event Time Altitude Azimuth Distance (km) Brightness Sun altitude
Rises 03:41:46 0° 8° (N) 3,711 7.2 -37.1°
Reaches altitude 10° 03:46:38 10° 41° (NE) 2,768 6.9 -36.2°
Maximum altitude 03:48:33 11° 59° (ENE) 2,669 6.9 -35.9°
Drops below altitude 10° 03:50:28 10° 77° (ENE) 2,769 7.1 -35.6°
Sets 03:55:19 0° 110° (ESE) 3,717 7.9 -34.7°
